COSMOS 2251 DEB, 35716

Orbit data source: Space-Track

COSMOS 2251 DEB, 35716 is space debris in LEO originally from a launch on Wed, 16 Jun 1993 UTC launched from the Plesetsk Missile And Space Complex (PKMTR). The debris from Iridium 33, an American commercial communications satellite, has been tracked extensively since its accidental collision with the defunct Russian satellite Cosmos 2251 in 2009. This event, occurring at high speed in low Earth orbit (LEO), generated thousands of pieces of space debris, significantly increasing the risk of further collisions. The Iridium 33 debris cloud has impacted space traffic management and orbital debris mitigation strategies, making it a subject of ongoing study in space situational awareness.

Loading next visibility...
Identifier
35716, 1993-036AQM
Orbit
LEO
Country
Flag of CISCIS
Related business
Manufacturer
Unknown
Mission
Spacecraft
Bus & Motor
Unknown
Mass
Unknown
Launch date (UTC)
Icon of a cake. It is the launch day of the satellite!1993-06-16 (33 years ago)
Launch vehicle
Unknown
Launch site
Plesetsk Missile And Space Complex (PKMTR)
Object type
Payload
Rocket body
Debris
Shape & HBR
Unknown shape, 0.1 m
Radar Cross Section
Small (<0.1 m²)

Expand to show TLE details & history
Last TLE update: 1 day ago

TLE from 1 day ago
0 COSMOS 2251 DEB
1 35716U 93036AQM 26166.36770406  .00000382  00000-0  81226-4 0  9993
2 35716  73.9924 200.8277 0089414 356.8726  21.7958 14.60311773903228
Epoch: 2026-06-15T08:49Z
TLE epoch observation values (Epoch: 2026-06-15T08:49:29.630Z)
Latitude
18.28793°
Longitude
170.21003°
Altitude
635.629 km
Speed
7.573 km/s
True Right ascension
13h 44m 57s
True Declination
18° 11' 02"
Sunlit
Object was in daylight at epoch
Visualization orbit readout
Latitude
Unknown
Longitude
Unknown
Altitude
Unknown
Speed
Unknown
Apparent Right ascension
Unknown
Apparent Declination
Unknown
Sunlit
N/A
Visualization observer readout
Local Sidereal Time
21:17:45
Azimuth
Unknown
Elevation
Unknown
Doppler factor
Unknown
Orbital elements
Apogee altitude
752.965 km
Perigee altitude
626.571 km
Semi-major axis
7,067.905 km
Eccentricity
0.00894
Inclination
73.9924°
RAAN
200.8277°
Arg. of periapsis
356.8726°
True anomaly
22.18022°
Mean anomaly
21.7958°
Eccentric anomaly
21.98761°
Mean motion
3.65264 °/min
Orbital period
98.56 mins
BSTAR
0.000081226

Documentation

Showing up to 5 results
|